Regional Weather Roundup
Issued by NWS Cleveland, OH

Home | Current Version | Previous Version | Text Only | Print | Product List | Glossary Off
Versions: 1 2 3 4 5 6 7 8 9 10 11 12 13 14 15 16 17 18 19 20 21 22 23 24 25 26 27 28 29 30 31 32 33 34 35 36 37 38 39 40 41 42 43 44 45 46 47 48 49 50

455
ASUS41 KCLE 290500
RWRCLE
OHIO REGIONAL WEATHER ROUNDUP
NATIONAL WEATHER SERVICE WILMINGTON, OH
100 AM EDT THU SEP 29 2016

NOTE: "FAIR" INDICATES FEW OR NO CLOUDS BELOW 12,000 FEET WITH NO
SIGNIFICANT WEATHER AND/OR OBSTRUCTIONS TO VISIBILITY.

OHZ001>008-015>018-024>027-034-035-043-044-290600-
   NORTHWEST OHIO

CITY           SKY/WX    TMP DP  RH WIND       PRES   REMARKS
DEFIANCE       FAIR      57  54  89 NE7       29.96F
FINDLAY        MOCLDY    57  53  86 NE9       29.96R FOG
TOLEDO EXPRESS LGT RAIN  56  56 100 NE9       30.00R
TOLEDO EXEC    LGT RAIN  58  55  90 E3        30.00S
LIMA           FOG       50  50 100 NE5       29.95S VSB 1/4
$$

OHZ009>014-019>023-028>033-038-089-290600-
   NORTHEAST OHIO

CITY           SKY/WX    TMP DP  RH WIND       PRES   REMARKS
CLE-HOPKINS    CLOUDY    59  55  87 SW6       30.01S
CLE-LAKEFRONT  CLOUDY    62  58  86 E7        29.97F
CUY CO. ARPT   NOT AVBL
LORAIN-ELYRIA  LGT RAIN  56  54  93 CALM      30.00S
ASHTABULA      FAIR      62  56  80 E6        30.03S
AKRON-CANTON   LGT RAIN  56  53  90 SW5       30.01R
WOOSTER        NOT AVBL
MANSFIELD      FAIR      55  53  93 CALM      29.97S
YOUNGSTOWN     CLOUDY    62  56  80 E8        30.00S
$$

OHZ042-051>053-060>062-070>072-077>081-290600-
  SOUTHWEST OHIO

CITY           SKY/WX    TMP DP  RH WIND       PRES   REMARKS
CINC-COVINGTON CLOUDY    51  51 100 W3        29.97R FOG
CINC-LUNKEN    FAIR      51  51 100 S5        29.98R
HAMILTON       FOG       51  49  92 SW3       29.97S VSB 1
DAYTON         NOT AVBL
WRIGHT-PAT AFB NOT AVBL
DAYTON GENERAL FAIR      53  50  89 CALM      29.95R
WILMINGTON     CLOUDY    53  53 100 SW6       29.95S
$$

OHZ036-037-039>041-045>050-054>059-063>069-073>076-082>088-290600-
  CENTRAL AND SOUTHEAST OHIO

CITY           SKY/WX    TMP DP  RH WIND       PRES   REMARKS
COLUMBUS       CLOUDY    56  56 100 SE7       29.96R
OSU AIRPORT    CLOUDY    56  56 100 SE3       29.95R
BOLTON FIELD   NOT AVBL
RICKENBACK AFB NOT AVBL
NEWARK         CLOUDY    56  54  93 E3        29.97R
MARION         FAIR      51  49  92 E7        29.98R
LANCASTER      CLOUDY    57  55  93 SE7       29.96S
ZANESVILLE     LGT RAIN  56  54  93 SE8       29.96F
NEW PHILLY     LGT RAIN  57  55  93 SE3       30.03R
$$




USA.gov is the U.S. government's official web portal to all federal, state and local government web resources and services.